[[{"header":{"parameterUnit":"m.s-1","parameterCategory":2,"la1":30.2991,"la2":30.254,"lo1":-89.0895,"lo2":-89.0444,"dy":0.0017,"dx":0.0017,"nx":28,"ny":28,"refTime":"2023-03-30T15:00:00:Z","depth":"0","parameterNumber":2,"parameterNumberName":"U-component_of_CURRENTS"},"data":[0,0,0,0,0,0,0,0,0,0,0,0,0,0,0,0,0,0,0,0,0,0,0,0,0,0,0,0,0,0,0,0,0,0,0,0,0,0,0,0,0,0,0,0,0,0,0,0,0,0,0,0,0,0,0,0,0,0,-0.4303,-0.4305,0,-0.4408,-0.4409,-0.441,-0.4425,-0.4425,-0.4424,-0.4424,-0.4308,-0.4305,-0.4302,0,0,0,0,0,0,0,0,0,0,0,0,0,-0.4032,-0.4037,-0.4303,-0.4305,-0.4307,-0.4408,-0.4409,-0.441,-0.4425,-0.4425,-0.4424,-0.4424,-0.4309,-0.4305,-0.4302,0,0,0,0,0,0,0,0,0,0,0,0,0,-0.4138,-0.4039,-0.4302,-0.4332,-0.4337,-0.4408,-0.4409,-0.441,-0.4425,-0.4425,-0.4424,-0.4424,-0.431,-0.4306,-0.4302,-0.4282,0,0,-0.4288,-0.4287,0,0,0,0,0,0,0,0,-0.4132,-0.4147,-0.4326,-0.4331,-0.4336,-0.441,-0.4272,-0.4359,-0.4425,-0.4383,-0.4424,-0.4424,-0.4327,-0.4321,-0.4334,-0.4277,-0.4272,-0.4288,-0.4285,-0.4284,-0.4282,0,0,0,0,0,0,0,-0.4125,-0.4142,-0.4336,-0.4328,-0.4334,-0.4313,-0.4328,-0.4288,-0.4345,-0.4387,-0.439,-0.4415,-0.4327,-0.4338,-0.4331,-0.427,-0.4288,-0.4284,-0.4282,-0.428,-0.4128,-0.4127,0,0,0,0,0,0,-0.4133,-0.4136,-0.4333,-0.434,-0.424,-0.4319,-0.4335,-0.438,-0.4351,-0.435,-0.4415,-0.4415,-0.4346,-0.4336,-0.4326,-0.4285,-0.4284,-0.428,-0.4277,-0.413,-0.4128,-0.4127,0,0,0,0,0,0,-0.4127,-0.4151,-0.4329,-0.4245,-0.4267,-0.4326,-0.4375,-0.4383,-0.4393,-0.4376,-0.4369,-0.4419,-0.4345,-0.4332,-0.4281,-0.4281,-0.4278,-0.4274,-0.4132,-0.4129,-0.4127,-0.4211,0,0,0,0,0,0,-0.4119,-0.4148,-0.416,-0.4247,-0.4273,-0.435,-0.4377,-0.4385,-0.4413,-0.4414,-0.4377,-0.4367,-0.4344,-0.4287,-0.4277,-0.4275,-0.427,-0.4133,-0.4131,-0.4128,-0.421,-0.4212,-0.4214,0,0,0,0,0,-0.411,-0.4133,-0.416,-0.4183,-0.4296,-0.4351,-0.4359,-0.4394,-0.4413,-0.4404,-0.4386,-0.4368,-0.4262,-0.4283,-0.4271,-0.4268,-0.4135,-0.4131,-0.4128,-0.4209,-0.4212,-0.4214,0,0,0,0,0,0,-0.4018,-0.4141,-0.4171,-0.423,-0.4277,-0.4356,-0.4365,-0.4393,-0.438,-0.4379,-0.4356,-0.4343,-0.4292,-0.4258,-0.4283,-0.4209,-0.4192,-0.4186,-0.4258,-0.4259,-0.4261,-0.4271,-0.4267,0,0,0,0,0,-0.4009,-0.4051,-0.4157,-0.419,-0.423,-0.4297,-0.432,-0.435,-0.4368,-0.4365,-0.4348,-0.4312,-0.4271,-0.425,-0.4201,-0.4169,-0.4092,-0.4151,-0.4153,-0.4155,-0.415,-0.409,-0.4088,-0.4116,-0.4116,-0.4116,0,0,-0.3983,-0.4051,-0.4076,-0.4171,-0.4222,-0.428,-0.4307,-0.4351,-0.438,-0.4349,-0.4354,-0.4312,-0.4258,-0.4222,-0.4197,-0.4197,-0.4085,-0.4151,-0.4154,-0.4147,-0.4087,-0.4084,-0.4082,-0.4114,-0.4114,-0.4114,0,0,-0.3962,-0.4022,-0.4063,-0.4116,-0.42,-0.4245,-0.4261,-0.4341,-0.4353,-0.4358,-0.4336,-0.4303,-0.425,-0.4225,-0.4202,-0.4179,-0.4091,-0.4147,-0.4179,-0.4122,-0.412,-0.4118,-0.3935,-0.3916,-0.4159,-0.4159,-0.4159,0,-0.392,-0.4005,-0.407,-0.4133,-0.4173,-0.4237,-0.4285,-0.4319,-0.4357,-0.4348,-0.4358,-0.4285,-0.426,-0.4213,-0.4217,-0.4189,-0.4091,-0.4189,-0.4129,-0.4126,-0.4122,-0.3936,-0.3914,-0.4163,-0.4162,-0.4162,-0.4162,0,-0.3947,-0.4017,-0.4046,-0.4151,-0.4186,-0.4232,-0.4311,-0.4324,-0.435,-0.4371,-0.4329,-0.4305,-0.4259,-0.4249,-0.4238,-0.4189,-0.4098,-0.4137,-0.4138,-0.4125,-0.3927,-0.3903,-0.4168,-0.4167,-0.4166,-0.4165,0,0,-0.3855,-0.4031,-0.4041,-0.4082,-0.4201,-0.422,-0.4278,-0.4316,-0.4311,-0.4344,-0.4308,-0.4304,-0.4288,-0.4259,-0.4233,-0.4205,-0.4095,-0.4168,-0.4164,-0.4007,-0.3855,-0.3747,-0.3708,-0.413,-0.4128,-0.4127,-0.3698,0,-0.3852,-0.3963,-0.4046,-0.4107,-0.417,-0.4235,-0.4262,-0.4291,-0.4306,-0.4277,-0.4277,-0.4233,-0.4294,-0.4255,-0.4248,-0.4121,-0.4046,-0.4199,-0.3871,-0.3858,-0.3786,-0.3685,-0.3584,-0.3193,-0.3674,-0.367,-0.3667,0,-0.3853,-0.3925,-0.4006,-0.4086,-0.4112,-0.4142,-0.4152,-0.4186,-0.4189,-0.4193,-0.4192,-0.4172,-0.4125,-0.4184,-0.4008,-0.4096,-0.3982,-0.3897,-0.388,-0.3742,-0.3709,-0.3296,-0.313,-0.3142,-0.3629,-0.3632,-0.3634,0,-0.3738,-0.3878,-0.3923,-0.3964,-0.4074,-0.408,-0.4115,-0.4145,-0.4119,-0.4129,-0.4075,-0.4062,-0.3977,-0.3921,-0.3804,-0.3884,-0.3553,-0.364,-0.3409,-0.3393,-0.3223,-0.3199,-0.3057,-0.3498,-0.3499,-0.35,-0.3501,0,-0.37,-0.3723,-0.3874,-0.3893,-0.3871,-0.3995,-0.3946,-0.3988,-0.3992,-0.3897,-0.4014,-0.3901,-0.3916,-0.3756,-0.3702,-0.344,-0.347,-0.3356,-0.3288,-0.3237,-0.322,-0.3158,-0.3217,-0.3484,-0.3487,-0.3491,-0.3493,0,-0.355,-0.3684,-0.3698,-0.3804,-0.3823,-0.3791,-0.3819,-0.377,-0.3841,-0.3711,-0.3702,-0.3692,-0.3515,-0.3465,-0.3271,-0.3233,-0.2983,-0.2955,-0.2832,-0.2763,-0.2623,-0.2689,-0.2399,-0.2332,-0.2611,-0.2606,-0.2602,0,-0.3472,-0.3493,-0.3561,-0.3533,-0.3571,-0.357,-0.3542,-0.3653,-0.3593,-0.3547,-0.3428,-0.3297,-0.3151,-0.2846,-0.2774,-0.2581,-0.2679,-0.2371,-0.2568,-0.2549,-0.2573,-0.2638,-0.2611,-0.2305,-0.2299,-0.2293,-0.2289,0,-0.326,-0.3294,-0.3287,-0.3256,-0.3232,-0.3212,-0.3201,-0.3154,-0.3223,-0.3144,-0.2992,-0.29,-0.2673,-0.2476,-0.2298,-0.2204,-0.235,-0.2257,-0.2291,-0.235,-0.2353,-0.2278,-0.2581,-0.2243,-0.2248,-0.2251,-0.2254,-0.2256,-0.3007,-0.2948,-0.2947,-0.2883,-0.2877,-0.2838,-0.2748,-0.2761,-0.2665,-0.2534,-0.2561,-0.2394,-0.2304,-0.2075,-0.1973,-0.1843,-0.1949,-0.1837,-0.1901,-0.1954,-0.1972,-0.2123,-0.1727,-0.1728,-0.173,-0.1731,-0.1732,0,-0.2608,-0.261,-0.2567,-0.2497,-0.2403,-0.2519,-0.2464,-0.2372,-0.2209,-0.2172,-0.205,-0.195,-0.1792,-0.1767,-0.1658,-0.1559,-0.157,-0.1525,-0.1635,-0.1616,-0.1753,-0.1835,-0.1383,-0.1383,-0.1383,-0.1383,-0.1384,-0.1384,-0.2374,-0.2217,-0.224,-0.2021,-0.2012,-0.1846,-0.1795,-0.1741,-0.1703,-0.1553,-0.1503,-0.1512,-0.1568,-0.1681,-0.1576,-0.1483,-0.1497,-0.1394,-0.1449,-0.1639,-0.1677,-0.1714,-0.1807,-0.1356,-0.1356,-0.1269,-0.1268,-0.1268]},{"header":{"parameterUnit":"m.s-1","parameterCategory":2,"la1":30.2991,"la2":30.254,"lo1":-89.0895,"lo2":-89.0444,"dy":0.0017,"dx":0.0017,"nx":28,"ny":28,"refTime":"2023-03-30T15:00:00:Z","depth":"0","parameterNumber":3,"parameterNumberName":"V-component_of_CURRENTS"},"data":[0,0,0,0,0,0,0,0,0,0,0,0,0,0,0,0,0,0,0,0,0,0,0,0,0,0,0,0,0,0,0,0,0,0,0,0,0,0,0,0,0,0,0,0,0,0,0,0,0,0,0,0,0,0,0,0,0,0,-0.005,-0.0047,0,0.0183,0.0186,0.0188,0.025,0.0248,0.0247,0.0246,0.0416,0.0421,0.0427,0,0,0,0,0,0,0,0,0,0,0,0,0,-0.0248,-0.0246,-0.005,-0.0047,-0.0044,0.0183,0.0186,0.0189,0.025,0.0248,0.0247,0.0245,0.0414,0.042,0.0427,0,0,0,0,0,0,0,0,0,0,0,0,0,-0.0105,-0.0245,-0.0051,0.0015,0.0023,0.0182,0.0186,0.019,0.025,0.0248,0.0246,0.0245,0.0411,0.042,0.0428,0.052,0,0,0.0454,0.0458,0,0,0,0,0,0,0,0,-0.0113,-0.0098,0.0002,0.0011,0.002,0.0187,0.0179,0.0297,0.0251,0.0163,0.0246,0.0244,0.0335,0.035,0.0397,0.0528,0.0535,0.0455,0.046,0.0464,0.0466,0,0,0,0,0,0,0,-0.0124,-0.0107,0.0041,0.0006,0.0017,0.0099,0.0115,0.0202,0.0255,0.017,0.0176,0.0204,0.0339,0.0389,0.0402,0.0537,0.0455,0.0463,0.0468,0.0471,0.0829,0.0833,0,0,0,0,0,0,-0.0157,-0.0117,0.0033,0.0048,-0.0051,0.0104,0.0122,0.0134,0.0255,0.0273,0.0206,0.0206,0.0375,0.0391,0.0408,0.0513,0.0464,0.0472,0.0477,0.0825,0.083,0.0835,0,0,0,0,0,0,-0.0163,-0.0147,0.0024,-0.0027,0.0,0.0108,0.0122,0.014,0.0182,0.0283,0.0299,0.0228,0.0374,0.0396,0.0506,0.052,0.0476,0.0484,0.0819,0.0826,0.0832,0.073,0,0,0,0,0,0,-0.017,-0.0151,-0.0158,-0.003,0.0002,0.0106,0.0125,0.0146,0.0203,0.0206,0.0308,0.0322,0.0374,0.0494,0.0515,0.0531,0.049,0.0814,0.0822,0.083,0.0728,0.0732,0.0736,0,0,0,0,0,-0.0178,-0.018,-0.016,-0.0142,-0.0011,0.0107,0.0131,0.0201,0.0206,0.023,0.0317,0.0319,0.0561,0.0504,0.0528,0.0546,0.081,0.082,0.0829,0.0726,0.0731,0.0736,0,0,0,0,0,0,-0.0272,-0.0169,-0.0146,-0.012,-0.0021,0.0117,0.0148,0.0199,0.0291,0.0287,0.037,0.0394,0.0502,0.0563,0.0498,0.0688,0.0689,0.0704,0.0602,0.0608,0.0612,0.0545,0.0498,0,0,0,0,0,-0.0296,-0.0278,-0.0152,-0.0135,-0.0087,0.0029,0.0083,0.0136,0.0239,0.0275,0.0353,0.0457,0.057,0.0612,0.0721,0.0812,0.0829,0.0852,0.0856,0.0858,0.0831,0.0893,0.0896,0.0867,0.0867,0.0866,0,0,-0.0329,-0.0271,-0.0262,-0.0154,-0.0075,-0.0004,0.0056,0.0136,0.0191,0.0281,0.037,0.0474,0.0607,0.0717,0.077,0.0756,0.088,0.087,0.087,0.0841,0.0903,0.0904,0.0906,0.0873,0.0872,0.0871,0,0,-0.0377,-0.033,-0.0324,-0.0241,-0.0126,-0.0037,-0.002,0.0122,0.0178,0.0299,0.0382,0.0485,0.0658,0.0738,0.0807,0.0906,0.091,0.096,0.0901,0.0962,0.0961,0.0961,0.0969,0.097,0.0946,0.0945,0.0945,0,-0.0423,-0.04,-0.03,-0.0257,-0.02,-0.0061,-0.0024,0.0077,0.0232,0.0278,0.0314,0.057,0.0664,0.0789,0.0827,0.0901,0.0924,0.0849,0.0954,0.0955,0.0956,0.0965,0.0967,0.0942,0.0942,0.0943,0.0943,0,-0.0453,-0.0427,-0.0407,-0.0318,-0.0237,-0.0178,-0.0025,0.0051,0.0142,0.024,0.0388,0.054,0.0673,0.0741,0.0812,0.0891,0.0898,0.0949,0.0905,0.0951,0.096,0.0964,0.0936,0.0938,0.0939,0.094,0,0,-0.0571,-0.0458,-0.0453,-0.0425,-0.0268,-0.0201,-0.0102,0.0028,0.0086,0.0241,0.0324,0.0519,0.0584,0.067,0.0775,0.0828,0.0859,0.0878,0.0883,0.082,0.0952,0.0903,0.0903,0.092,0.0921,0.0922,0.0943,0,-0.0627,-0.0598,-0.051,-0.0459,-0.0419,-0.027,-0.018,-0.0047,0.0085,0.0209,0.0365,0.0509,0.0568,0.0645,0.0699,0.0858,0.0871,0.0846,0.0976,0.0979,0.0875,0.0907,0.0962,0.0982,0.0948,0.0949,0.0949,0,-0.0687,-0.0656,-0.0645,-0.0529,-0.0495,-0.0444,-0.0298,-0.0193,0.0009,0.012,0.0251,0.0405,0.0541,0.0595,0.0764,0.0746,0.0815,0.0906,0.091,0.0893,0.0938,0.0947,0.0991,0.1165,0.0956,0.0955,0.0955,0,-0.083,-0.0743,-0.0753,-0.0713,-0.0559,-0.0534,-0.0438,-0.0252,-0.013,0.006,0.0175,0.0337,0.0465,0.0578,0.0737,0.077,0.0893,0.0973,0.0968,0.0965,0.105,0.1051,0.122,0.1035,0.1035,0.1035,0.1035,0,-0.0925,-0.0922,-0.083,-0.0832,-0.0799,-0.0656,-0.0575,-0.0451,-0.0236,-0.0093,0.0104,0.0235,0.0472,0.0591,0.0704,0.0819,0.0853,0.0939,0.0971,0.1019,0.1018,0.1204,0.1277,0.1036,0.1036,0.1035,0.1035,0,-0.1068,-0.102,-0.1009,-0.0906,-0.0872,-0.0848,-0.0638,-0.0532,-0.0354,-0.0161,-0.0084,0.0184,0.0331,0.0498,0.0692,0.0783,0.0992,0.091,0.0913,0.0943,0.1137,0.1201,0.1326,0.1421,0.0958,0.0957,0.0956,0,-0.1134,-0.1159,-0.1091,-0.1054,-0.1014,-0.0933,-0.0825,-0.0619,-0.0474,-0.0201,-0.0096,0.009,0.0224,0.0446,0.0647,0.0795,0.0926,0.0918,0.1,0.113,0.1229,0.1263,0.134,0.108,0.1081,0.1081,0.1081,0,-0.1234,-0.1227,-0.1206,-0.1141,-0.1069,-0.0954,-0.0805,-0.0719,-0.0457,-0.0326,-0.0157,-0.0056,0.02,0.0432,0.0626,0.0728,0.1062,0.0924,0.1107,0.1354,0.1362,0.1475,0.1042,0.1082,0.1082,0.1082,0.1082,0.1082,-0.1284,-0.1295,-0.1247,-0.1175,-0.1083,-0.0956,-0.0882,-0.0721,-0.0574,-0.0326,-0.026,-0.0058,0.0319,0.0632,0.0747,0.1092,0.1069,0.1241,0.1308,0.133,0.1427,0.0937,0.0982,0.0981,0.0981,0.098,0.098,0,-0.1285,-0.1277,-0.1235,-0.114,-0.1028,-0.0974,-0.081,-0.0711,-0.0607,-0.0376,-0.0256,0.0173,0.0522,0.0886,0.133,0.1509,0.1594,0.1594,0.1732,0.1796,0.1427,0.1441,0.1532,0.1531,0.1531,0.1531,0.1531,0.1531,-0.1277,-0.1245,-0.1222,-0.1069,-0.1002,-0.0868,-0.0799,-0.0697,-0.0524,-0.0206,0.0079,0.0297,0.0767,0.148,0.191,0.1939,0.2151,0.2081,0.218,0.2012,0.1987,0.1964,0.1998,0.2204,0.2205,0.2577,0.2581,0.2584]}],[{"header":{"parameterUnit":"m.s-1","parameterCategory":2,"la1":30.2991,"la2":30.254,"lo1":-89.0895,"lo2":-89.0444,"dy":0.0017,"dx":0.0017,"nx":28,"ny":28,"refTime":"2023-03-30T15:00:00:Z","depth":"2","parameterNumber":2,"parameterNumberName":"U-component_of_CURRENTS"},"data":[0,0,0,0,0,0,0,0,0,0,0,0,0,0,0,0,0,0,0,0,0,0,0,0,0,0,0,0,0,0,0,0,0,0,0,0,0,0,0,0,0,0,0,0,0,0,0,0,0,0,0,0,0,0,0,0,0,0,-0.3539,-0.3541,0,-0.3737,-0.374,-0.3742,-0.3838,-0.3838,-0.3837,-0.3837,-0.3901,-0.3903,-0.3905,0,0,0,0,0,0,0,0,0,0,0,0,0,-0.3348,-0.335,-0.3539,-0.3541,-0.3543,-0.3737,-0.374,-0.3743,-0.3838,-0.3838,-0.3837,-0.3837,-0.39,-0.3903,-0.3905,0,0,0,0,0,0,0,0,0,0,0,0,0,-0.3481,-0.3351,-0.3538,-0.361,-0.3618,-0.3736,-0.374,-0.3744,-0.3838,-0.3838,-0.3837,-0.3836,-0.3899,-0.3903,-0.3906,-0.3941,0,0,-0.3916,-0.3917,0,0,0,0,0,0,0,0,-0.3473,-0.3488,-0.3598,-0.3605,-0.3615,-0.3758,-0.3696,-0.3801,-0.3839,-0.376,-0.3837,-0.3836,-0.3838,-0.3846,-0.3894,-0.3944,-0.3946,-0.3916,-0.3918,-0.3919,-0.392,0,0,0,0,0,0,0,-0.3464,-0.3481,-0.3622,-0.36,-0.361,-0.3668,-0.3686,-0.3718,-0.3802,-0.3767,-0.3773,-0.3788,-0.3842,-0.3891,-0.3896,-0.3947,-0.3916,-0.3919,-0.3921,-0.3922,-0.3915,-0.3913,0,0,0,0,0,0,-0.3425,-0.3472,-0.3616,-0.3628,-0.3535,-0.3671,-0.3691,-0.3717,-0.3805,-0.3817,-0.3788,-0.3791,-0.3886,-0.3892,-0.3898,-0.3918,-0.3919,-0.3922,-0.3924,-0.3917,-0.3915,-0.3912,0,0,0,0,0,0,-0.3421,-0.3437,-0.3608,-0.355,-0.3575,-0.3674,-0.3703,-0.3721,-0.3787,-0.3822,-0.3832,-0.3836,-0.3885,-0.3893,-0.3909,-0.3922,-0.3924,-0.3927,-0.392,-0.3916,-0.3913,-0.3974,0,0,0,0,0,0,-0.3415,-0.3434,-0.3453,-0.3547,-0.3576,-0.3652,-0.3703,-0.3725,-0.3793,-0.38,-0.3865,-0.387,-0.3885,-0.3904,-0.3912,-0.3926,-0.3929,-0.3922,-0.3918,-0.3914,-0.3975,-0.3974,-0.3972,0,0,0,0,0,-0.3407,-0.3429,-0.3453,-0.3471,-0.3595,-0.365,-0.3671,-0.3743,-0.3796,-0.3806,-0.3848,-0.3869,-0.3882,-0.3906,-0.3916,-0.3932,-0.3924,-0.3919,-0.3915,-0.3976,-0.3974,-0.3972,0,0,0,0,0,0,-0.3355,-0.3444,-0.3471,-0.3519,-0.3565,-0.3664,-0.3702,-0.3756,-0.3811,-0.3817,-0.3869,-0.3875,-0.3884,-0.3884,-0.3909,-0.3903,-0.3897,-0.3894,-0.3939,-0.3938,-0.3936,-0.396,-0.3932,0,0,0,0,0,-0.335,-0.3386,-0.3464,-0.3494,-0.3529,-0.3624,-0.3667,-0.37,-0.3757,-0.3787,-0.3834,-0.3857,-0.3873,-0.3887,-0.3887,-0.3912,-0.385,-0.391,-0.3909,-0.3909,-0.3925,-0.384,-0.3834,-0.3896,-0.3897,-0.3897,0,0,-0.3342,-0.3387,-0.3414,-0.3484,-0.3547,-0.3606,-0.365,-0.3697,-0.377,-0.3778,-0.3882,-0.3859,-0.3871,-0.3884,-0.3887,-0.3892,-0.3841,-0.3903,-0.3904,-0.3921,-0.3834,-0.3829,-0.3824,-0.3893,-0.3894,-0.3894,0,0,-0.3327,-0.3385,-0.3413,-0.346,-0.3523,-0.3584,-0.3599,-0.3691,-0.3761,-0.3834,-0.3838,-0.3819,-0.3891,-0.3875,-0.3889,-0.3877,-0.3831,-0.3863,-0.3903,-0.3819,-0.3815,-0.381,-0.3666,-0.3648,-0.3873,-0.3873,-0.3873,0,-0.3304,-0.337,-0.3423,-0.3464,-0.351,-0.3581,-0.3623,-0.3722,-0.38,-0.3825,-0.386,-0.3885,-0.3897,-0.3896,-0.3896,-0.3883,-0.3803,-0.3926,-0.3823,-0.3817,-0.3812,-0.3665,-0.3645,-0.3875,-0.3875,-0.3875,-0.3874,0,-0.3315,-0.3383,-0.3407,-0.3494,-0.3531,-0.3577,-0.3687,-0.3746,-0.3837,-0.3888,-0.3911,-0.3921,-0.3915,-0.3913,-0.3937,-0.3884,-0.3823,-0.3828,-0.3843,-0.381,-0.3655,-0.3633,-0.3879,-0.3878,-0.3877,-0.3876,0,0,-0.3231,-0.3388,-0.3403,-0.3442,-0.3553,-0.3569,-0.37,-0.3785,-0.3829,-0.3915,-0.3934,-0.3994,-0.3952,-0.3958,-0.3935,-0.3896,-0.3784,-0.3865,-0.3859,-0.3749,-0.3544,-0.3429,-0.3393,-0.3778,-0.3776,-0.3774,-0.3431,0,-0.3231,-0.3317,-0.3395,-0.3471,-0.3526,-0.3619,-0.3722,-0.3785,-0.3858,-0.3883,-0.3916,-0.3918,-0.3993,-0.3952,-0.3935,-0.3807,-0.3738,-0.3873,-0.3569,-0.3558,-0.3486,-0.337,-0.3201,-0.2878,-0.341,-0.3406,-0.3403,0,-0.3215,-0.3282,-0.3369,-0.3465,-0.3494,-0.3549,-0.3632,-0.3719,-0.3785,-0.3832,-0.3841,-0.3842,-0.381,-0.3866,-0.3708,-0.3788,-0.3683,-0.3602,-0.3586,-0.3456,-0.3406,-0.3003,-0.2817,-0.3366,-0.3369,-0.3372,-0.3374,0,-0.3112,-0.3245,-0.3312,-0.3355,-0.349,-0.3534,-0.3598,-0.3679,-0.3703,-0.3759,-0.3712,-0.3726,-0.3655,-0.3605,-0.3512,-0.3586,-0.3281,-0.3342,-0.313,-0.3117,-0.2902,-0.2876,-0.3207,-0.3207,-0.3208,-0.3209,-0.321,0,-0.3071,-0.3113,-0.3278,-0.3315,-0.3333,-0.3454,-0.3458,-0.3542,-0.358,-0.3503,-0.3649,-0.3549,-0.359,-0.3449,-0.3413,-0.3178,-0.3196,-0.3098,-0.3022,-0.2908,-0.2888,-0.3285,-0.3299,-0.3196,-0.3199,-0.3202,-0.3204,0,-0.2923,-0.3069,-0.3112,-0.3261,-0.329,-0.3285,-0.3339,-0.3324,-0.3426,-0.3313,-0.3316,-0.3336,-0.3188,-0.3177,-0.2999,-0.2973,-0.2812,-0.2722,-0.2565,-0.2481,-0.272,-0.274,-0.2435,-0.2428,-0.2422,-0.2418,-0.2413,0,-0.2847,-0.2882,-0.3004,-0.2999,-0.3064,-0.3091,-0.3092,-0.3219,-0.3172,-0.314,-0.3028,-0.293,-0.2816,-0.2564,-0.2503,-0.2365,-0.2535,-0.2117,-0.227,-0.2684,-0.2641,-0.2671,-0.2698,-0.1961,-0.1954,-0.1948,-0.1943,0,-0.2655,-0.2726,-0.2752,-0.2769,-0.2776,-0.2753,-0.2765,-0.2697,-0.278,-0.2748,-0.2611,-0.2541,-0.2348,-0.2157,-0.2032,-0.1952,-0.2159,-0.1987,-0.2383,-0.2227,-0.2221,-0.2186,-0.2231,-0.1888,-0.1894,-0.1898,-0.1901,-0.1903,-0.2455,-0.2412,-0.2474,-0.2447,-0.2458,-0.2385,-0.2307,-0.2321,-0.2243,-0.2143,-0.2167,-0.2039,-0.2006,-0.1745,-0.1626,-0.1562,-0.1732,-0.1699,-0.1723,-0.1752,-0.1803,-0.1793,-0.1383,-0.1385,-0.1387,-0.1389,-0.1391,0,-0.2143,-0.2147,-0.2135,-0.2097,-0.2019,-0.2141,-0.2051,-0.1965,-0.1831,-0.1783,-0.1723,-0.1484,-0.1381,-0.1376,-0.1202,-0.1172,-0.1226,-0.1125,-0.1224,-0.1275,-0.1322,-0.136,-0.0816,-0.0814,-0.0813,-0.0812,0,0,-0.1974,-0.1857,-0.1873,-0.1671,-0.1674,-0.1534,-0.1464,-0.1399,-0.1346,-0.1191,-0.1145,-0.1257,-0.1293,-0.1048,-0.0997,-0.088,-0.1068,-0.0824,-0.1277,-0.1441,-0.1486,-0.1632,-0.1745,0,0,0,0,0]},{"header":{"parameterUnit":"m.s-1","parameterCategory":2,"la1":30.2991,"la2":30.254,"lo1":-89.0895,"lo2":-89.0444,"dy":0.0017,"dx":0.0017,"nx":28,"ny":28,"refTime":"2023-03-30T15:00:00:Z","depth":"2","parameterNumber":3,"parameterNumberName":"V-component_of_CURRENTS"},"data":[0,0,0,0,0,0,0,0,0,0,0,0,0,0,0,0,0,0,0,0,0,0,0,0,0,0,0,0,0,0,0,0,0,0,0,0,0,0,0,0,0,0,0,0,0,0,0,0,0,0,0,0,0,0,0,0,0,0,-0.0319,-0.0317,0,-0.0144,-0.0141,-0.0139,-0.0046,-0.0046,-0.0046,-0.0046,0.02,0.0206,0.0213,0,0,0,0,0,0,0,0,0,0,0,0,0,-0.0391,-0.0391,-0.0319,-0.0317,-0.0315,-0.0144,-0.0141,-0.0138,-0.0046,-0.0046,-0.0046,-0.0046,0.0197,0.0205,0.0214,0,0,0,0,0,0,0,0,0,0,0,0,0,-0.0299,-0.0391,-0.0319,-0.0251,-0.0244,-0.0145,-0.0141,-0.0138,-0.0046,-0.0046,-0.0046,-0.0047,0.0195,0.0205,0.0215,0.0283,0,0,0.0246,0.025,0,0,0,0,0,0,0,0,-0.0304,-0.0296,-0.0263,-0.0256,-0.0247,-0.0121,-0.0076,0.0005,-0.0046,-0.0116,-0.0046,-0.0047,0.0097,0.0115,0.0154,0.0295,0.0305,0.0246,0.0253,0.0257,0.026,0,0,0,0,0,0,0,-0.0311,-0.0301,-0.0245,-0.0261,-0.0252,-0.0168,-0.0156,-0.006,-0.0006,-0.011,-0.0104,-0.0091,0.0102,0.0143,0.016,0.0309,0.0246,0.0255,0.0261,0.0265,0.0582,0.0584,0,0,0,0,0,0,-0.035,-0.0309,-0.0251,-0.024,-0.0282,-0.0167,-0.0154,-0.0158,-0.0008,0.0013,-0.0091,-0.0088,0.0126,0.0148,0.0169,0.0298,0.0257,0.0266,0.0272,0.0579,0.0582,0.0585,0,0,0,0,0,0,-0.0353,-0.0347,-0.0258,-0.0272,-0.0256,-0.0168,-0.0171,-0.0154,-0.0105,0.0005,0.0028,-0.0061,0.0127,0.0155,0.0242,0.0307,0.0271,0.028,0.0577,0.058,0.0583,0.0532,0,0,0,0,0,0,-0.0356,-0.035,-0.036,-0.0276,-0.0257,-0.0212,-0.017,-0.0151,-0.01,-0.0093,0.0039,0.0061,0.0129,0.0226,0.0251,0.032,0.0288,0.0574,0.0578,0.0582,0.053,0.0533,0.0535,0,0,0,0,0,-0.0359,-0.0375,-0.0362,-0.0354,-0.0276,-0.0213,-0.0194,-0.0128,-0.0098,-0.0083,-0.0001,0.0057,0.0274,0.0234,0.0264,0.0338,0.0571,0.0577,0.0582,0.0529,0.0532,0.0535,0,0,0,0,0,0,-0.0413,-0.0365,-0.0349,-0.0351,-0.0294,-0.0199,-0.0175,-0.0127,-0.0046,-0.0039,0.0068,0.0096,0.0202,0.0273,0.0227,0.0444,0.0442,0.0453,0.0392,0.0396,0.0398,0.0364,0.0296,0,0,0,0,0,-0.0433,-0.0437,-0.0369,-0.0374,-0.0345,-0.0258,-0.022,-0.0179,-0.0101,-0.0065,0.0021,0.0133,0.0251,0.0317,0.0409,0.0521,0.0544,0.0596,0.0598,0.0599,0.0594,0.0672,0.068,0.0602,0.0602,0.0602,0,0,-0.0459,-0.0433,-0.0436,-0.0386,-0.0331,-0.0294,-0.0235,-0.0189,-0.013,-0.0049,0.0046,0.013,0.0276,0.0392,0.0452,0.0461,0.0629,0.0606,0.0606,0.06,0.0678,0.0685,0.0692,0.0605,0.0605,0.0604,0,0,-0.051,-0.0484,-0.0497,-0.0451,-0.0388,-0.0325,-0.0316,-0.0224,-0.0149,-0.0055,0.0028,0.0127,0.0304,0.0409,0.0497,0.0572,0.0624,0.063,0.0635,0.0711,0.0716,0.0722,0.0721,0.0727,0.0648,0.0648,0.0648,0,-0.0541,-0.055,-0.0489,-0.0478,-0.0443,-0.0344,-0.0332,-0.0229,-0.0123,-0.0064,-0.0034,0.0217,0.0321,0.0495,0.0526,0.0579,0.0599,0.0606,0.0709,0.0715,0.0722,0.072,0.0727,0.0646,0.0646,0.0647,0.0647,0,-0.0592,-0.0589,-0.0585,-0.0543,-0.0495,-0.0468,-0.0339,-0.0271,-0.0173,-0.0082,0.0086,0.023,0.0369,0.0451,0.0523,0.0652,0.064,0.0681,0.0685,0.0725,0.0722,0.073,0.0644,0.0644,0.0645,0.0645,0,0,-0.0681,-0.0634,-0.0633,-0.062,-0.0527,-0.0491,-0.0386,-0.0265,-0.0188,-0.0042,0.0069,0.0291,0.0346,0.0448,0.0563,0.066,0.0715,0.0692,0.0697,0.0659,0.0826,0.0763,0.0766,0.0775,0.0777,0.0779,0.0787,0,-0.0735,-0.075,-0.0698,-0.0681,-0.0665,-0.0546,-0.0448,-0.0326,-0.0192,-0.0064,0.014,0.0287,0.0367,0.0446,0.0547,0.069,0.0742,0.0705,0.0821,0.0822,0.0738,0.0777,0.0758,0.0762,0.0796,0.0797,0.0798,0,-0.0797,-0.0794,-0.0812,-0.0734,-0.0712,-0.0682,-0.0536,-0.0436,-0.0225,-0.0111,0.0045,0.0196,0.0388,0.0444,0.0663,0.0636,0.0707,0.0804,0.0807,0.0774,0.0777,0.0742,0.0776,0.0812,0.0811,0.081,0.0809,0,-0.0896,-0.0862,-0.0884,-0.0863,-0.0764,-0.0731,-0.0656,-0.0478,-0.0355,-0.0154,-0.0054,0.0161,0.0307,0.045,0.0621,0.0659,0.0813,0.0889,0.0881,0.0874,0.0894,0.0886,0.0992,0.0992,0.0992,0.0992,0.0992,0,-0.0975,-0.0981,-0.0936,-0.0949,-0.0919,-0.0823,-0.0746,-0.0628,-0.0438,-0.0315,-0.01,0.0027,0.0324,0.0458,0.0584,0.0726,0.0766,0.0872,0.0889,0.0871,0.0861,0.0948,0.0942,0.0992,0.0992,0.0992,0.0992,0,-0.1078,-0.106,-0.1067,-0.1002,-0.0977,-0.0956,-0.0804,-0.071,-0.0548,-0.0383,-0.0307,-0.0042,0.0139,0.0354,0.058,0.0682,0.0817,0.0829,0.0742,0.075,0.0837,0.083,0.0886,0.0884,0.0882,0.0881,0.088,0,-0.113,-0.1159,-0.1127,-0.1107,-0.1084,-0.1026,-0.0946,-0.0781,-0.0659,-0.0446,-0.035,-0.0147,0.0016,0.0283,0.0499,0.0685,0.0716,0.0744,0.0841,0.0824,0.0835,0.0829,0.0824,0.0833,0.0831,0.083,0.0829,0,-0.1206,-0.1206,-0.1206,-0.1171,-0.1124,-0.1045,-0.0929,-0.0869,-0.0666,-0.0536,-0.0385,-0.0271,0.0005,0.0244,0.0468,0.0569,0.0732,0.0727,0.0764,0.0849,0.0772,0.0783,0.078,0.0819,0.082,0.0821,0.0822,0.0822,-0.1237,-0.1252,-0.1235,-0.1191,-0.1132,-0.104,-0.0983,-0.0853,-0.0722,-0.0506,-0.0453,-0.0249,-0.0028,0.0347,0.0482,0.064,0.0677,0.0757,0.0762,0.0768,0.0747,0.0672,0.0691,0.0692,0.0692,0.0692,0.0692,0,-0.1236,-0.1239,-0.1219,-0.116,-0.1082,-0.1042,-0.0917,-0.0836,-0.0726,-0.0549,-0.0403,-0.0172,0.009,0.0305,0.0567,0.0707,0.0743,0.0712,0.0757,0.0764,0.0771,0.0754,0.0698,0.0699,0.07,0.07,0,0,-0.1232,-0.1215,-0.1203,-0.1089,-0.1047,-0.094,-0.0884,-0.0792,-0.0652,-0.0512,-0.0345,-0.0125,0.0119,0.0309,0.0472,0.0602,0.0646,0.0601,0.0578,0.0616,0.0622,0.0773,0.0749,0,0,0,0,0]}],[{"header":{"parameterUnit":"m.s-1","parameterCategory":2,"la1":30.2991,"la2":30.254,"lo1":-89.0895,"lo2":-89.0444,"dy":0.0017,"dx":0.0017,"nx":28,"ny":28,"refTime":"2023-03-30T15:00:00:Z","depth":"4","parameterNumber":2,"parameterNumberName":"U-component_of_CURRENTS"},"data":[0,0,0,0,0,0,0,0,0,0,0,0,0,0,0,0,0,0,0,0,0,0,0,0,0,0,0,0,0,0,0,0,0,0,0,0,0,0,0,0,0,0,0,0,0,0,0,0,0,0,0,0,0,0,0,0,0,0,-0.1599,-0.1598,0,-0.1434,-0.1432,-0.1429,-0.1362,-0.1363,-0.1364,-0.1365,-0.1421,-0.1421,-0.1421,0,0,0,0,0,0,0,0,0,0,0,0,0,-0.1611,-0.1612,-0.16,-0.1598,-0.1597,-0.1435,-0.1432,-0.1429,-0.1362,-0.1363,-0.1365,-0.1366,-0.142,-0.1421,-0.1421,0,0,0,0,0,0,0,0,0,0,0,0,0,-0.1535,-0.1612,-0.16,-0.155,-0.1545,-0.1436,-0.1432,-0.1428,-0.1361,-0.1363,-0.1365,-0.1366,-0.142,-0.1421,-0.1421,-0.1391,0,0,-0.1423,-0.1424,0,0,0,0,0,0,0,0,-0.1539,-0.1533,-0.1559,-0.1554,-0.1547,-0.1428,-0.1456,-0.1429,-0.1361,-0.1422,-0.1365,-0.1367,-0.1448,-0.1446,-0.1396,-0.1394,-0.1396,-0.1423,-0.1424,-0.1424,-0.1424,0,0,0,0,0,0,0,-0.1545,-0.1539,-0.1526,-0.1558,-0.155,-0.1453,-0.1445,-0.1448,-0.1425,-0.1417,-0.1414,-0.1408,-0.1445,-0.1395,-0.1398,-0.1397,-0.1423,-0.1424,-0.1424,-0.1425,-0.1551,-0.1554,0,0,0,0,0,0,-0.1594,-0.1545,-0.1531,-0.1522,-0.1557,-0.1453,-0.1443,-0.1458,-0.142,-0.1416,-0.1407,-0.1406,-0.1393,-0.1397,-0.14,-0.149,-0.1424,-0.1425,-0.1425,-0.1548,-0.1552,-0.1555,0,0,0,0,0,0,-0.1595,-0.1595,-0.1538,-0.1534,-0.1522,-0.1454,-0.1468,-0.1454,-0.1436,-0.1411,-0.1411,-0.141,-0.1395,-0.1399,-0.1481,-0.1488,-0.1425,-0.1425,-0.1545,-0.155,-0.1554,-0.1591,0,0,0,0,0,0,-0.1596,-0.1596,-0.1616,-0.1539,-0.1524,-0.1521,-0.1467,-0.145,-0.1433,-0.143,-0.1414,-0.1417,-0.1397,-0.1481,-0.1482,-0.1488,-0.1426,-0.1541,-0.1547,-0.1552,-0.1586,-0.1596,-0.1605,0,0,0,0,0,-0.1597,-0.1599,-0.1618,-0.1616,-0.1557,-0.1524,-0.1507,-0.1455,-0.1432,-0.1441,-0.146,-0.142,-0.1516,-0.1485,-0.1485,-0.1491,-0.1538,-0.1545,-0.1552,-0.1582,-0.1594,-0.1605,0,0,0,0,0,0,-0.1596,-0.1592,-0.1611,-0.1611,-0.1606,-0.1517,-0.1491,-0.1474,-0.1478,-0.1495,-0.1466,-0.1473,-0.1545,-0.1533,-0.1498,-0.1552,-0.1517,-0.1524,-0.1539,-0.1551,-0.156,-0.1585,-0.1426,0,0,0,0,0,-0.1618,-0.163,-0.1622,-0.1627,-0.1622,-0.1569,-0.1545,-0.1541,-0.1531,-0.1529,-0.1542,-0.1555,-0.156,-0.1574,-0.1597,-0.1626,-0.1599,-0.1633,-0.1642,-0.165,-0.1677,-0.1618,-0.1622,-0.1578,-0.1578,-0.1577,0,0,-0.1614,-0.1617,-0.1622,-0.163,-0.1598,-0.1596,-0.1556,-0.1552,-0.1543,-0.1543,-0.1564,-0.1605,-0.1586,-0.1626,-0.1653,-0.162,-0.1659,-0.1659,-0.1664,-0.1688,-0.1625,-0.1628,-0.1631,-0.1582,-0.1581,-0.1581,0,0,-0.1595,-0.1624,-0.1625,-0.1635,-0.1644,-0.1627,-0.1647,-0.1634,-0.1614,-0.1667,-0.1657,-0.1727,-0.1737,-0.1727,-0.1708,-0.179,-0.1723,-0.1796,-0.184,-0.1781,-0.1783,-0.1784,-0.178,-0.178,-0.1781,-0.1781,-0.1781,0,-0.1601,-0.1606,-0.1619,-0.1626,-0.164,-0.1653,-0.1672,-0.1632,-0.1666,-0.1669,-0.1703,-0.1729,-0.1768,-0.1729,-0.1809,-0.1803,-0.1784,-0.1782,-0.1787,-0.1787,-0.1787,-0.1783,-0.1783,-0.1784,-0.1784,-0.1783,-0.1783,0,-0.1581,-0.1599,-0.1591,-0.1626,-0.1656,-0.167,-0.1675,-0.1704,-0.1726,-0.1716,-0.1746,-0.1783,-0.1807,-0.182,-0.1862,-0.1872,-0.1866,-0.1809,-0.1741,-0.1793,-0.1787,-0.1786,-0.1788,-0.1787,-0.1786,-0.1785,0,0,-0.1549,-0.1576,-0.1577,-0.1601,-0.1672,-0.1684,-0.17,-0.171,-0.1684,-0.1741,-0.1711,-0.1792,-0.1845,-0.1839,-0.1855,-0.1848,-0.19,-0.1876,-0.1872,-0.1847,-0.1815,-0.1726,-0.1716,-0.1827,-0.1827,-0.1827,-0.1817,0,-0.153,-0.1541,-0.1584,-0.1618,-0.1627,-0.1691,-0.169,-0.1726,-0.1733,-0.1721,-0.1717,-0.1712,-0.1811,-0.1837,-0.1861,-0.1895,-0.1898,-0.1912,-0.1794,-0.1793,-0.1681,-0.171,-0.1826,-0.1816,-0.1816,-0.1815,-0.1815,0,-0.1498,-0.1511,-0.1553,-0.1606,-0.1619,-0.167,-0.1712,-0.1719,-0.1702,-0.1709,-0.172,-0.1699,-0.1751,-0.1789,-0.1832,-0.1839,-0.1883,-0.1879,-0.1875,-0.1779,-0.1699,-0.1752,-0.1812,-0.1812,-0.1813,-0.1813,-0.1813,0,-0.1456,-0.1489,-0.153,-0.1555,-0.1622,-0.1668,-0.172,-0.1743,-0.17,-0.17,-0.1676,-0.1685,-0.1699,-0.1716,-0.1825,-0.1822,-0.1842,-0.1785,-0.1715,-0.171,-0.1773,-0.1772,-0.1786,-0.1786,-0.1786,-0.1786,-0.1786,0,-0.1413,-0.1434,-0.1512,-0.1531,-0.1559,-0.1663,-0.1673,-0.1703,-0.1694,-0.1663,-0.1683,-0.1632,-0.1691,-0.17,-0.1782,-0.178,-0.1798,-0.1746,-0.1692,-0.1798,-0.1799,-0.1773,-0.1772,-0.1786,-0.1786,-0.1786,-0.1786,0,-0.1351,-0.1403,-0.1434,-0.1517,-0.1541,-0.1583,-0.1628,-0.1573,-0.1636,-0.159,-0.158,-0.1598,-0.1642,-0.1661,-0.1712,-0.1706,-0.1698,-0.1688,-0.1859,-0.1811,-0.1618,-0.1619,-0.1557,-0.1554,-0.1551,-0.1548,-0.1546,0,-0.1318,-0.1331,-0.1406,-0.1405,-0.145,-0.1499,-0.1475,-0.1538,-0.1496,-0.1565,-0.1515,-0.154,-0.1567,-0.1553,-0.163,-0.1652,-0.1655,-0.1629,-0.1599,-0.1637,-0.159,-0.1596,-0.1602,-0.1542,-0.1541,-0.154,-0.1539,0,-0.124,-0.1288,-0.1299,-0.1289,-0.1291,-0.1271,-0.1294,-0.1264,-0.1354,-0.1368,-0.1408,-0.1412,-0.1456,-0.1504,-0.1534,-0.1561,-0.162,-0.1598,-0.1603,-0.1574,-0.1617,-0.1575,-0.1584,-0.1529,-0.1531,-0.1532,-0.1532,0,-0.1178,-0.1157,-0.1169,-0.1149,-0.1118,-0.1088,-0.1132,-0.1129,-0.1125,-0.1246,-0.1281,-0.1379,-0.147,-0.1458,-0.1501,-0.1498,-0.1463,-0.1412,-0.1426,-0.1438,-0.1403,-0.144,-0.1258,0,0,0,0,0,-0.1106,-0.1053,-0.1011,-0.0991,-0.0946,-0.0953,-0.0986,-0.1039,-0.1149,-0.1131,-0.1217,-0.1269,-0.1323,-0.1368,-0.1338,-0.1418,-0.1455,-0.1373,-0.1401,-0.1473,-0.1485,-0.1455,0,0,0,0,0,0,-0.1052,-0.101,-0.0967,-0.0837,-0.0801,-0.0755,-0.0798,-0.0897,-0.0921,-0.106,-0.1092,-0.1172,-0.123,-0.1322,-0.1305,-0.1315,-0.1304,-0.143,-0.1426,-0.1466,-0.1477,-0.1486,-0.146,0,0,0,0,0]},{"header":{"parameterUnit":"m.s-1","parameterCategory":2,"la1":30.2991,"la2":30.254,"lo1":-89.0895,"lo2":-89.0444,"dy":0.0017,"dx":0.0017,"nx":28,"ny":28,"refTime":"2023-03-30T15:00:00:Z","depth":"4","parameterNumber":3,"parameterNumberName":"V-component_of_CURRENTS"},"data":[0,0,0,0,0,0,0,0,0,0,0,0,0,0,0,0,0,0,0,0,0,0,0,0,0,0,0,0,0,0,0,0,0,0,0,0,0,0,0,0,0,0,0,0,0,0,0,0,0,0,0,0,0,0,0,0,0,0,-0.0507,-0.0507,0,-0.063,-0.0633,-0.0635,-0.0673,-0.0671,-0.067,-0.0668,-0.0717,-0.072,-0.0723,0,0,0,0,0,0,0,0,0,0,0,0,0,-0.0401,-0.0403,-0.0507,-0.0507,-0.0508,-0.063,-0.0633,-0.0635,-0.0673,-0.0671,-0.067,-0.0668,-0.0716,-0.072,-0.0723,0,0,0,0,0,0,0,0,0,0,0,0,0,-0.0488,-0.0404,-0.0506,-0.0534,-0.0537,-0.063,-0.0633,-0.0636,-0.0674,-0.0671,-0.0669,-0.0667,-0.0715,-0.0719,-0.0723,-0.0795,0,0,-0.0736,-0.0738,0,0,0,0,0,0,0,0,-0.0483,-0.0493,-0.0529,-0.0532,-0.0535,-0.0625,-0.0613,-0.0682,-0.0674,-0.0633,-0.0668,-0.0666,-0.0674,-0.0682,-0.0726,-0.0797,-0.08,-0.0736,-0.0739,-0.0741,-0.0742,0,0,0,0,0,0,0,-0.0477,-0.0488,-0.0566,-0.053,-0.0534,-0.0573,-0.0583,-0.0628,-0.0672,-0.0636,-0.0637,-0.0635,-0.0677,-0.0722,-0.0727,-0.08,-0.0736,-0.074,-0.0742,-0.0744,-0.0963,-0.0966,0,0,0,0,0,0,-0.0439,-0.0483,-0.0562,-0.0569,-0.0491,-0.0575,-0.0587,-0.0607,-0.0673,-0.0678,-0.0637,-0.0636,-0.0716,-0.0722,-0.0728,-0.0816,-0.0741,-0.0744,-0.0747,-0.0959,-0.0963,-0.0967,0,0,0,0,0,0,-0.0436,-0.0446,-0.0557,-0.0519,-0.0534,-0.0578,-0.0601,-0.061,-0.0649,-0.0672,-0.0678,-0.0662,-0.0715,-0.0723,-0.0776,-0.0817,-0.0746,-0.075,-0.0955,-0.0961,-0.0965,-0.0991,0,0,0,0,0,0,-0.0434,-0.0445,-0.046,-0.0517,-0.0534,-0.0608,-0.0602,-0.0614,-0.0646,-0.0647,-0.0696,-0.0699,-0.0713,-0.077,-0.078,-0.0822,-0.0753,-0.0951,-0.0958,-0.0964,-0.0986,-0.0996,-0.1005,0,0,0,0,0,-0.043,-0.0458,-0.0461,-0.047,-0.055,-0.0608,-0.0624,-0.0653,-0.0649,-0.0678,-0.0712,-0.0697,-0.0817,-0.0776,-0.0787,-0.0831,-0.0948,-0.0956,-0.0963,-0.0982,-0.0994,-0.1005,0,0,0,0,0,0,-0.0431,-0.0465,-0.0469,-0.0509,-0.0548,-0.061,-0.064,-0.0658,-0.0715,-0.0714,-0.0734,-0.0741,-0.0813,-0.0826,-0.0779,-0.0919,-0.0884,-0.0894,-0.0895,-0.0907,-0.0916,-0.089,-0.0757,0,0,0,0,0,-0.0433,-0.0462,-0.0496,-0.0533,-0.0546,-0.0595,-0.0624,-0.0646,-0.0692,-0.0716,-0.0751,-0.0799,-0.0861,-0.0879,-0.0938,-0.1002,-0.0927,-0.1044,-0.1054,-0.1061,-0.1053,-0.0985,-0.0985,-0.0992,-0.0992,-0.0992,0,0,-0.0445,-0.0466,-0.0484,-0.0534,-0.057,-0.0613,-0.0611,-0.0658,-0.0709,-0.0712,-0.0798,-0.0837,-0.089,-0.0972,-0.1004,-0.0977,-0.1015,-0.1071,-0.1076,-0.1064,-0.0993,-0.0991,-0.0989,-0.0997,-0.0996,-0.0995,0,0,-0.0484,-0.05,-0.0534,-0.056,-0.0599,-0.0634,-0.0641,-0.0705,-0.0745,-0.0826,-0.0851,-0.0887,-0.0999,-0.1024,-0.1056,-0.115,-0.1076,-0.1204,-0.1217,-0.1152,-0.1148,-0.1144,-0.0999,-0.0983,-0.1197,-0.1197,-0.1197,0,-0.0493,-0.0541,-0.0556,-0.0589,-0.061,-0.0639,-0.0679,-0.0741,-0.082,-0.0856,-0.0853,-0.0986,-0.1014,-0.1088,-0.1138,-0.1163,-0.1101,-0.1159,-0.1155,-0.115,-0.1146,-0.0999,-0.0979,-0.1199,-0.1199,-0.1199,-0.1199,0,-0.055,-0.0586,-0.0608,-0.0657,-0.0686,-0.0729,-0.0779,-0.0834,-0.0876,-0.093,-0.1013,-0.1046,-0.1108,-0.1144,-0.1177,-0.1199,-0.1153,-0.1173,-0.1103,-0.1145,-0.0989,-0.0968,-0.1202,-0.1202,-0.1201,-0.12,0,0,-0.0579,-0.0637,-0.0645,-0.0667,-0.0719,-0.0751,-0.083,-0.0909,-0.0948,-0.1025,-0.1073,-0.1172,-0.1171,-0.1207,-0.1232,-0.1187,-0.1089,-0.1185,-0.1181,-0.0999,-0.0892,-0.0843,-0.0814,-0.112,-0.1118,-0.1117,-0.0774,0,-0.0622,-0.0687,-0.0706,-0.0773,-0.0806,-0.0835,-0.0893,-0.0962,-0.1023,-0.1083,-0.1118,-0.1179,-0.1205,-0.122,-0.119,-0.1137,-0.1048,-0.1176,-0.0916,-0.0906,-0.0825,-0.0795,-0.1111,-0.0758,-0.0753,-0.075,-0.0747,0,-0.0669,-0.0705,-0.0772,-0.0812,-0.0825,-0.0868,-0.093,-0.0988,-0.1072,-0.1107,-0.1155,-0.1196,-0.1184,-0.1188,-0.1034,-0.1125,-0.1015,-0.0937,-0.0922,-0.0855,-0.0822,-0.0727,-0.0709,-0.0712,-0.0715,-0.0717,-0.072,0,-0.0684,-0.0747,-0.08,-0.0817,-0.0873,-0.0906,-0.0937,-0.1006,-0.1044,-0.1119,-0.1127,-0.1143,-0.1101,-0.1019,-0.0893,-0.0966,-0.067,-0.0731,-0.055,-0.054,-0.0668,-0.0677,-0.0576,-0.0577,-0.0578,-0.0579,-0.058,0,-0.072,-0.0761,-0.081,-0.0842,-0.0882,-0.0908,-0.0955,-0.0994,-0.1035,-0.105,-0.113,-0.1099,-0.1063,-0.0932,-0.0842,-0.0601,-0.06,-0.0517,-0.0458,-0.0685,-0.07,-0.0648,-0.0661,-0.0566,-0.0568,-0.0571,-0.0573,0,-0.0737,-0.0777,-0.0831,-0.0884,-0.0899,-0.0926,-0.0957,-0.0981,-0.1006,-0.1016,-0.1034,-0.1021,-0.0841,-0.0741,-0.0528,-0.0473,-0.0288,-0.0192,-0.0353,-0.0313,-0.0206,-0.0225,0.0037,0.0041,0.0045,0.0048,0.005,0,-0.0757,-0.0792,-0.0851,-0.0868,-0.0899,-0.0933,-0.0948,-0.0979,-0.0985,-0.0944,-0.0931,-0.0798,-0.0767,-0.038,-0.0312,-0.006,-0.0067,0.0054,-0.0182,-0.0178,-0.0146,-0.0172,-0.0195,0.0056,0.0057,0.0058,0.0059,0,-0.0781,-0.0805,-0.0844,-0.0871,-0.0899,-0.0917,-0.0932,-0.0918,-0.0915,-0.0941,-0.0798,-0.0693,-0.0465,-0.031,-0.0086,0.0054,-0.0043,0.0092,0.0081,-0.014,-0.0151,-0.0129,-0.0157,0.0072,0.007,0.0069,0.0068,0,-0.0791,-0.0812,-0.0848,-0.0863,-0.0887,-0.0873,-0.0889,-0.084,-0.0829,-0.0778,-0.0703,-0.0546,-0.046,-0.0236,-0.0048,0.0105,0.008,0.0065,0.0055,0.0042,-0.0123,-0.0148,0.0164,0,0,0,0,0,-0.0797,-0.0811,-0.0825,-0.0842,-0.0853,-0.0864,-0.0858,-0.0863,-0.0843,-0.0724,-0.0711,-0.0513,-0.0267,-0.0182,-0.001,-0.0023,0.0088,0.0175,0.0061,0.0143,0.0128,-0.0072,0,0,0,0,0,0,-0.0804,-0.083,-0.0821,-0.0801,-0.0804,-0.0815,-0.0808,-0.0799,-0.0722,-0.0687,-0.0542,-0.0503,-0.0255,-0.0354,-0.0016,0.0023,-0.0035,0.0277,0.028,0.0151,0.0138,0.0126,-0.0085,0,0,0,0,0]}]]